Simultaneous Nadir Overpasses (SNOs) Predictions

Prediction of SNOs between AQUA and METOP-C Satellite Orbit:

Table of predicted SNOs for the next 14.0 days since TLE Epoch: 10/15/2022
Index Date (AQUA) Time (AQUA) Lat,Lon (AQUA) SZA (AQUA ) Date (METOP-C) Time (METOP-C) Lat,Lon (METOP-C) SZA (METOP-C ) Distance(km) Time Diff (sec)
1 10/16/2022 23:40:03 -74.03, 0.01 96.90 10/16/2022 23:39:19 -74.04, -0.06 96.88 2.76 44
2 10/17/2022 00:29:32 74.14, 167.40 83.23 10/17/2022 00:29:56 74.13, 167.50 83.22 2.96 24
3 10/19/2022 18:23:57 74.01,-100.92 84.10 10/19/2022 18:23:01 74.04,-100.99 84.12 3.44 56
4 10/19/2022 19:13:24 -74.12, 66.48 95.78 10/19/2022 19:13:42 -74.14, 66.58 95.77 3.29 18
5 10/19/2022 20:03:03 74.75,-127.40 84.88 10/19/2022 20:04:08 74.75,-124.47 84.86 85.68 65
6 10/22/2022 13:07:49 -74.05, 158.05 94.88 10/22/2022 13:06:47 -74.04, 158.08 94.89 1.67 62
7 10/22/2022 13:57:16 74.12, -34.46 85.20 10/22/2022 13:57:23 74.12, -34.39 85.20 1.98 7
8 10/22/2022 14:46:49 -74.53, 132.20 94.37 10/22/2022 14:47:58 -74.51, 133.95 94.39 51.91 69
9 10/25/2022 07:51:40 74.05, 57.12 86.09 10/25/2022 07:50:27 74.06, 57.21 86.10 3.02 73
10 10/25/2022 08:41:06 -74.10,-135.36 93.85 10/25/2022 08:41:09 -74.12,-135.32 93.83 2.08 3
11 10/25/2022 09:30:34 74.17, 32.12 86.24 10/25/2022 09:31:46 74.19, 32.19 86.25 2.99 72
12 10/28/2022 02:35:28 -73.98, -43.67 93.04 10/28/2022 02:34:15 -73.95, -43.98 93.06 9.92 73
13 10/28/2022 03:24:57 74.10, 123.70 87.10 10/28/2022 03:24:50 74.12, 123.77 87.12 3.24 7



Historial Predications of SNOs between AQUA and METOP-C
